Temp
7 7 7 6 6 6 7 8 8 7 8 7 6 6 7 7 7 8 8 8 9 9 9 10 10 10 10 10 10 10 10 10 10 9 9 9 9 9 9 8 8 9 9 9 9 9 9 9 8
6 6 6 5 5 6 8 9 8 7 7 7 6 6 6 6 6 8 8 8 8 8 9 9 9 9 9 10 10 10 10 10 9 9 9 9 9 9 8 8 8 9 9 9 9 9 9 8 8
6 6 5 5 5 7 8 8 7 7 6 7 6 6 6 6 7 7 8 8 8 8 8 8 9 9 9 9 9 9 9 9 9 9 8 8 9 8 8 8 8 8 9 9 9 9 9 8 8
5 5 5 5 7 6 6 6 6 6 6 6 6 6 6 6 7 7 7 7 8 8 8 8 9 8 8 8 8 8 8 8 9 8 8 8 8 8 8 7 7 8 8 9 8 8 8 8 8
5 5 4 5 6 7 6 5 5 5 6 6 6 6 6 6 6 7 7 7 8 7 7 8 8 8 8 8 8 8 8 8 8 8 8 8 8 8 7 7 7 8 8 8 8 8 8 8 8
5 5 5 5 6 6 6 5 4 5 5 5 6 6 5 5 6 6 6 7 7 7 7 7 8 8 8 8 8 8 8 8 8 8 8 8 8 8 7 7 7 7 8 8 8 8 8 7 7
4 4 5 5 6 6 6 6 5 5 5 5 5 5 5 5 5 6 6 6 6 7 7 6 7 7 8 8 8 8 7 7 7 8 8 8 8 8 7 6 6 6 7 7 8 8 8 7 7
4 3 4 5 6 6 6 5 5 5 5 5 5 5 5 5 5 5 6 6 6 6 6 7 6 6 6 6 7 7 7 7 7 7 8 8 8 8 7 7 6 6 6 7 7 7 7 7 7
3 2 4 4 5 5 5 5 5 5 5 5 5 5 5 5 5 5 5 6 6 6 6 6 6 6 6 6 6 6 6 6 6 7 7 8 8 8 7 7 6 6 6 6 7 7 7 7 7
3 3 4 4 4 4 5 5 5 5 5 5 5 5 5 5 5 5 5 5 6 6 6 6 6 6 6 6 5 5 6 6 6 6 6 7 7 7 7 7 6 5 6 6 6 7 7 7 6
3 2 3 3 3 4 4 5 5 5 6 5 5 5 5 5 6 6 5 5 5 6 6 6 6 6 6 5 5 5 5 6 5 5 5 5 6 7 6 6 6 5 5 6 6 6 6 6 6
2 2 2 3 3 3 4 4 5 5 6 5 5 6 5 6 6 6 5 5 5 5 6 5 5 6 6 6 5 5 6 5 5 5 5 5 5 6 6 5 6 5 5 5 6 6 6 6 5
2 2 2 2 2 2 3 4 4 6 4 5 5 5 6 6 5 5 5 5 5 5 5 6 5 5 5 6 6 5 5 6 5 5 5 5 5 5 5 5 5 5 5 5 5 5 5 5 5
2 2 2 2 2 2 3 3 4 4 4 4 4 4 5 6 6 6 5 5 5 5 5 4 5 5 5 5 6 5 5 5 5 5 5 5 5 5 5 5 5 5 5 5 5 5 5 5 5
1 1 1 2 2 2 2 3 4 3 3 3 3 3 4 4 4 5 5 5 5 5 4 4 4 4 4 4 5 5 5 5 5 5 5 4 5 5 5 5 5 5 5 5 5 5 5 4 5
0 1 1 1 1 1 1 3 2 2 2 2 2 3 3 3 3 4 5 5 4 4 4 4 4 4 4 4 4 4 4 4 4 5 5 4 4 4 5 5 5 5 5 4 4 5 4 4 4
-0 -0 0 0 0 0 0 2 3 1 2 3 3 3 3 3 3 3 3 4 4 4 4 4 3 3 3 3 3 4 4 4 4 4 5 5 5 4 5 5 5 5 5 4 4 4 4 4 4
-1 -1 -1 -0 -1 -1 -0 3 1 1 1 2 3 2 3 3 3 2 2 3 4 4 3 3 3 3 2 3 3 3 3 4 4 4 5 4 4 5 5 5 5 5 5 4 4 4 3 3 2
-2 -2 -1 -1 -1 -1 -0 1 1 1 1 2 2 2 2 2 2 3 2 3 3 3 3 3 3 2 2 2 2 3 3 3 4 4 4 4 4 4 5 5 5 5 5 5 4 4 3 2 1
-2 -2 -1 -2 -2 -4 -3 1 1 1 0 1 1 1 1 2 2 2 1 2 2 2 3 2 2 2 2 1 2 2 2 2 2 3 3 4 4 4 4 4 5 4 5 4 4 4 4 2 1
-3 -3 -3 -4 -4 -3 -3 -1 1 -0 -1 -1 -0 0 1 1 1 1 1 1 1 2 2 2 2 1 1 1 1 2 2 2 3 2 3 3 4 4 5 5 5 4 4 4 4 4 3 3 2
-3 -3 -3 -4 -4 -4 -4 -3 -2 -1 -1 -1 -1 -1 -0 -0 -0 0 -0 -0 0 1 1 1 0 0 0 0 0 1 2 2 2 2 3 3 4 4 4 4 4 3 3 3 3 3 3 3 2
-3 -3 -4 -4 -5 -4 -4 -4 -1 -2 -1 -2 -2 -3 -2 -1 -1 -1 -1 -1 -1 -0 -0 -1 -1 -1 -1 -0 0 1 1 1 2 2 3 3 3 2 3 4 3 3 2 3 2 2 3 2 2
-4 -3 -3 -4 -4 -4 -3 -3 -2 -3 -3 -2 -2 -2 -3 -2 -1 -1 -1 -1 -1 -2 -2 -2 -1 -1 -1 -1 -0 0 1 1 2 2 3 3 2 2 3 3 3 3 2 2 2 2 2 2 2
-4 -3 -5 -4 -4 -4 -2 -3 -3 -3 -3 -3 -2 -3 -2 -2 -1 -1 -1 -1 -2 -2 -2 -2 -2 -1 -1 -1 -0 0 1 1 1 2 2 2 2 2 3 3 2 2 2 2 2 2 2 2 1
-4 -3 -4 -5 -4 -3 -2 -3 -4 -3 -3 -3 -2 -2 -2 -2 -2 -2 -1 -2 -1 -2 -2 -2 -2 -2 -1 -1 -0 -0 1 1 2 2 3 2 2 2 2 2 2 2 2 2 2 2 2 2 1
-3 -4 -3 -4 -4 -4 -2 -3 -3 -4 -3 -3 -3 -3 -3 -2 -3 -3 -2 -2 -2 -1 -2 -2 -2 -1 -1 -1 -1 0 1 1 2 2 2 1 1 1 2 1 2 2 1 1 1 1 1 1 1
-4 -4 -3 -3 -3 -3 -2 -4 -4 -4 -4 -3 -3 -3 -3 -3 -3 -3 -2 -2 -2 -2 -2 -2 -2 -2 -1 -1 0 0 1 1 2 2 2 2 1 1 2 2 1 1 1 1 1 1 0 0 1
-3 -3 -3 -3 -3 -3 -3 -4 -4 -4 -4 -4 -3 -4 -3 -3 -3 -3 -2 -2 -2 -1 -1 -1 -1 -0 -0 -0 1 0 0 1 1 1 1 1 1 1 1 1 1 1 1 1 1 0 1 0 1
-3 -3 -3 -4 -3 -3 -4 -3 -4 -4 -4 -4 -3 -3 -3 -3 -4 -3 -2 -2 -2 -2 -1 -1 -1 -0 -0 0 -0 0 1 1 0 0 0 0 0 0 0 0 1 1 2 1 1 1 1 1 1
Height
3122 3125 3127 3130 3138 3134 3134 3137 3136 3138 3140 3140 3143 3148 3151 3153 3155 3161 3158 3158 3160 3163 3166 3168 3169 3169 3170 3170 3171 3172 3172 3172 3173 3174 3174 3176 3176 3178 3178 3179 3180 3182 3181 3182 3181 3181 3181 3180 3180
3121 3123 3126 3127 3132 3131 3132 3133 3135 3136 3137 3139 3140 3144 3148 3150 3151 3153 3156 3157 3159 3161 3164 3166 3168 3169 3170 3170 3170 3171 3172 3172 3172 3173 3174 3175 3176 3177 3178 3179 3180 3181 3182 3182 3182 3181 3181 3181 3181
3120 3122 3125 3126 3128 3129 3131 3131 3132 3133 3135 3137 3139 3142 3144 3146 3149 3151 3154 3156 3158 3160 3162 3164 3166 3167 3168 3169 3169 3170 3171 3172 3173 3173 3174 3175 3176 3177 3178 3180 3180 3181 3182 3182 3182 3182 3182 3181 3182
3117 3121 3123 3123 3125 3127 3128 3129 3130 3131 3134 3137 3139 3141 3142 3143 3146 3149 3152 3154 3157 3158 3160 3162 3164 3165 3166 3167 3168 3169 3170 3171 3172 3173 3174 3175 3176 3177 3178 3179 3180 3181 3182 3182 3182 3182 3182 3182 3182
3115 3118 3119 3121 3124 3126 3128 3128 3130 3131 3132 3135 3137 3138 3139 3140 3143 3146 3149 3151 3154 3156 3158 3160 3162 3163 3165 3166 3166 3168 3169 3169 3171 3172 3174 3175 3176 3176 3178 3178 3180 3181 3182 3182 3182 3182 3182 3182 3183
3113 3115 3116 3118 3121 3124 3125 3126 3128 3130 3131 3133 3135 3136 3138 3139 3141 3143 3146 3149 3151 3152 3154 3156 3158 3160 3161 3163 3164 3166 3167 3168 3169 3171 3173 3174 3175 3176 3176 3178 3179 3180 3181 3182 3182 3182 3182 3182 3183
3111 3112 3113 3116 3119 3121 3122 3123 3124 3126 3128 3130 3132 3133 3135 3136 3138 3140 3143 3146 3147 3149 3151 3152 3155 3157 3159 3160 3161 3163 3165 3167 3168 3169 3170 3172 3173 3175 3175 3176 3178 3179 3180 3181 3182 3182 3182 3182 3182
3108 3110 3112 3113 3116 3118 3118 3119 3121 3122 3124 3125 3127 3128 3132 3133 3135 3137 3139 3142 3144 3146 3148 3150 3150 3152 3154 3157 3159 3160 3162 3164 3166 3167 3168 3169 3170 3173 3174 3175 3176 3177 3178 3180 3181 3181 3182 3182 3182
3106 3108 3109 3111 3113 3115 3115 3116 3117 3118 3119 3120 3121 3124 3128 3129 3131 3133 3134 3136 3139 3142 3143 3145 3145 3148 3150 3152 3155 3157 3158 3160 3162 3165 3166 3166 3168 3169 3170 3173 3174 3175 3177 3177 3179 3180 3180 3181 3182
3102 3104 3107 3108 3110 3111 3113 3113 3112 3113 3114 3116 3117 3119 3122 3123 3125 3127 3129 3131 3133 3135 3139 3141 3142 3144 3145 3148 3150 3152 3154 3156 3158 3160 3162 3163 3165 3166 3168 3170 3171 3173 3175 3176 3176 3178 3178 3179 3180
3099 3100 3104 3105 3106 3108 3109 3109 3108 3109 3109 3113 3113 3113 3113 3115 3118 3119 3121 3124 3127 3130 3133 3135 3138 3140 3141 3143 3145 3148 3150 3151 3152 3155 3157 3159 3162 3163 3164 3166 3168 3170 3172 3173 3174 3175 3176 3177 3178
3097 3098 3101 3102 3103 3103 3104 3105 3104 3102 3106 3107 3105 3106 3106 3108 3110 3112 3113 3116 3119 3122 3126 3129 3132 3135 3137 3139 3140 3143 3145 3147 3149 3150 3152 3155 3158 3160 3161 3162 3165 3167 3169 3170 3171 3173 3174 3175 3176
3094 3096 3098 3099 3099 3099 3100 3101 3098 3096 3102 3098 3099 3099 3100 3100 3102 3104 3105 3107 3111 3114 3119 3124 3126 3129 3132 3134 3136 3139 3140 3142 3144 3146 3149 3151 3153 3156 3158 3159 3162 3163 3165 3167 3168 3169 3171 3172 3173
3091 3093 3094 3096 3096 3095 3094 3095 3092 3097 3092 3093 3092 3093 3092 3091 3093 3095 3097 3100 3102 3106 3110 3114 3117 3120 3123 3128 3130 3132 3135 3137 3139 3141 3144 3146 3148 3151 3153 3155 3158 3159 3161 3162 3164 3165 3167 3169 3170
3089 3091 3091 3091 3092 3090 3088 3087 3088 3087 3087 3088 3088 3086 3085 3085 3085 3087 3088 3091 3093 3096 3100 3103 3108 3112 3115 3120 3124 3126 3129 3132 3134 3136 3139 3142 3144 3146 3149 3151 3153 3156 3158 3158 3159 3159 3162 3165 3166
3087 3088 3087 3088 3088 3087 3085 3079 3085 3084 3083 3080 3081 3080 3079 3079 3078 3078 3079 3080 3084 3086 3089 3094 3098 3102 3107 3112 3116 3119 3122 3126 3130 3131 3134 3136 3139 3141 3143 3146 3149 3150 3152 3152 3154 3152 3155 3158 3161
3084 3084 3085 3086 3085 3083 3080 3073 3078 3080 3077 3074 3073 3072 3072 3070 3070 3069 3069 3069 3072 3076 3078 3082 3087 3093 3098 3103 3108 3111 3114 3118 3122 3126 3129 3132 3133 3136 3138 3140 3142 3144 3144 3145 3147 3149 3147 3152 3156
3081 3083 3082 3084 3082 3079 3075 3066 3070 3074 3070 3065 3064 3062 3061 3060 3061 3061 3059 3060 3062 3065 3069 3071 3075 3080 3087 3093 3098 3102 3105 3110 3115 3119 3122 3124 3127 3130 3132 3134 3135 3137 3138 3139 3141 3141 3141 3142 3148
3079 3080 3079 3080 3079 3073 3070 3062 3063 3065 3063 3058 3055 3053 3051 3051 3051 3051 3051 3051 3051 3054 3058 3061 3065 3070 3076 3081 3087 3093 3097 3104 3108 3111 3114 3117 3120 3123 3124 3125 3127 3129 3130 3131 3132 3133 3134 3135 3139
3077 3076 3078 3077 3075 3071 3067 3057 3057 3056 3055 3050 3048 3045 3043 3043 3042 3041 3041 3042 3043 3045 3048 3051 3054 3060 3066 3072 3080 3086 3092 3096 3100 3103 3106 3108 3112 3114 3115 3116 3117 3120 3121 3122 3123 3125 3126 3127 3130
3076 3075 3075 3075 3073 3070 3064 3052 3052 3052 3049 3045 3042 3038 3036 3033 3032 3033 3033 3034 3035 3037 3039 3040 3045 3050 3057 3064 3071 3077 3081 3086 3091 3096 3099 3101 3102 3104 3105 3106 3107 3108 3110 3111 3113 3117 3120 3121 3125
3074 3072 3072 3072 3073 3070 3067 3058 3049 3047 3045 3041 3036 3031 3026 3025 3024 3026 3027 3028 3028 3029 3029 3030 3035 3040 3048 3056 3062 3068 3075 3080 3085 3089 3090 3092 3092 3093 3094 3096 3096 3097 3099 3102 3106 3110 3112 3113 3116
3074 3071 3070 3069 3068 3066 3061 3062 3045 3042 3038 3035 3031 3026 3020 3017 3018 3020 3021 3021 3022 3022 3022 3024 3027 3032 3040 3048 3056 3062 3067 3072 3077 3080 3082 3084 3085 3086 3086 3087 3089 3091 3093 3096 3098 3103 3103 3105 3108
3071 3069 3066 3064 3063 3062 3055 3056 3044 3041 3038 3033 3029 3025 3019 3015 3015 3014 3015 3016 3017 3018 3018 3019 3022 3027 3035 3044 3050 3055 3061 3065 3068 3072 3074 3077 3078 3078 3079 3080 3083 3085 3086 3088 3089 3094 3096 3099 3101
3069 3067 3064 3064 3062 3057 3053 3053 3046 3042 3037 3031 3027 3023 3018 3013 3010 3008 3009 3010 3012 3014 3016 3017 3019 3024 3032 3039 3045 3051 3054 3058 3061 3064 3067 3069 3071 3072 3073 3075 3077 3078 3078 3081 3083 3087 3089 3090 3095
3067 3067 3067 3066 3061 3055 3052 3049 3046 3040 3035 3030 3026 3021 3016 3011 3001 2994 2999 3005 3008 3010 3012 3016 3019 3024 3030 3035 3040 3044 3050 3053 3055 3057 3060 3062 3064 3065 3067 3069 3072 3072 3073 3077 3078 3082 3084 3085 3088
3065 3065 3065 3062 3058 3056 3050 3047 3044 3040 3034 3031 3026 3019 3013 3012 2998 2990 2994 2999 3005 3007 3009 3013 3018 3023 3028 3032 3036 3040 3043 3045 3048 3050 3052 3054 3057 3059 3061 3063 3066 3069 3070 3072 3074 3076 3078 3081 3083
3064 3065 3064 3062 3059 3054 3047 3048 3045 3040 3036 3032 3026 3022 3016 3014 3002 2994 2996 2999 3003 3005 3007 3010 3015 3017 3023 3027 3030 3035 3036 3036 3040 3044 3047 3049 3053 3055 3056 3059 3062 3064 3065 3067 3070 3071 3074 3076 3077
3065 3063 3062 3062 3059 3057 3054 3052 3048 3043 3040 3035 3030 3025 3021 3017 3010 3005 3001 3001 3004 3005 3008 3012 3015 3019 3024 3025 3026 3031 3034 3035 3039 3041 3044 3046 3049 3051 3053 3056 3058 3059 3059 3062 3064 3066 3068 3069 3071
3064 3063 3062 3061 3059 3057 3056 3057 3051 3047 3043 3039 3034 3031 3028 3025 3020 3015 3012 3011 3008 3008 3009 3013 3017 3020 3023 3026 3028 3031 3035 3037 3038 3041 3044 3045 3048 3050 3051 3053 3055 3057 3058 3060 3061 3063 3065 3066 3067
Wind_Speed
10 10 11 13 9 7 12 10 17 6 5 14 21 21 14 16 12 6 9 8 7 10 8 8 8 8 6 3 5 5 4 4 3 2 2 1 2 3 6 5 4 2 2 4 8 9 7 3 4
11 11 13 14 7 10 7 11 11 10 9 9 18 20 22 15 20 17 12 9 6 4 5 7 7 7 5 6 6 6 5 5 5 4 3 2 2 4 6 5 3 2 1 4 7 9 5 2 3
11 11 12 8 10 12 4 7 11 12 9 10 12 18 21 23 19 20 18 12 9 5 4 6 5 6 5 6 6 7 7 5 6 5 2 0 2 5 6 5 4 2 0 3 6 8 5 1 4
12 13 12 12 8 10 11 6 8 12 13 13 11 8 16 26 25 19 21 13 13 12 10 10 9 9 8 9 9 8 8 7 6 5 4 2 3 6 8 5 4 3 2 2 4 6 5 2 1
14 13 16 11 11 12 7 9 8 10 15 17 18 17 15 17 24 26 17 20 20 14 14 16 16 13 9 5 8 9 8 8 8 7 7 7 5 8 9 8 7 5 4 3 4 5 5 2 1
16 15 12 16 13 11 11 14 13 13 13 13 13 18 21 17 18 22 20 21 22 21 17 17 18 19 17 14 9 5 5 6 8 8 8 9 10 11 12 11 9 8 6 5 5 5 5 2 2
16 16 16 14 12 12 13 14 16 18 19 19 18 20 19 25 21 19 21 23 21 22 22 19 18 17 19 20 17 12 10 8 8 9 9 10 13 13 14 14 12 9 8 7 6 6 6 5 3
17 18 15 14 14 15 15 16 17 18 19 20 21 21 22 23 26 23 23 24 25 24 25 23 21 20 17 17 16 12 11 11 12 13 12 13 15 16 17 18 15 13 11 10 8 7 7 7 6
16 18 16 17 14 15 15 15 17 19 20 22 23 23 22 22 26 27 27 27 28 26 27 26 25 24 24 17 16 17 15 13 14 14 16 16 17 19 20 20 18 16 14 13 11 9 9 8 8
19 19 16 17 16 16 16 18 22 22 23 23 24 24 24 26 29 30 32 31 31 32 30 29 27 23 23 22 19 18 18 17 17 17 17 19 20 21 22 22 22 19 17 15 14 13 11 9 9
20 21 17 18 18 17 19 22 26 26 27 22 25 25 29 29 31 36 35 36 36 35 34 33 32 30 26 24 22 18 16 19 18 20 18 19 22 23 22 24 25 22 19 18 18 17 13 12 11
20 19 18 18 19 22 22 25 27 30 28 25 28 30 31 32 33 35 39 39 39 39 38 35 33 32 29 28 24 20 20 19 17 17 19 19 20 23 22 24 24 25 23 21 21 20 17 15 13
19 18 18 18 19 23 25 25 29 33 23 30 29 30 31 33 33 36 38 41 44 44 39 40 38 34 32 29 28 24 22 22 18 18 19 21 21 22 25 26 24 24 25 24 24 23 21 19 16
16 14 17 18 19 24 26 25 31 23 28 25 25 27 30 33 34 36 38 40 43 46 45 41 42 39 36 34 34 29 27 24 22 19 20 23 23 25 26 27 27 27 26 27 27 26 25 24 21
16 16 18 19 18 21 24 29 28 24 23 20 22 26 28 30 31 32 33 38 42 45 47 49 44 41 40 35 35 32 27 26 24 22 19 18 16 25 25 26 29 28 28 30 29 31 29 28 25
13 15 14 14 14 18 21 33 26 25 26 25 27 28 29 30 32 32 32 33 35 43 47 50 49 45 43 40 37 35 32 28 24 20 20 20 19 19 20 27 29 30 32 33 35 36 34 32 28
10 10 13 13 15 18 24 35 27 22 30 34 33 34 31 31 29 31 32 36 35 34 42 49 52 50 45 43 41 38 35 31 29 26 25 27 24 23 22 24 27 33 30 31 30 41 38 37 31
7 10 12 12 13 20 28 39 34 27 29 34 34 34 31 31 30 29 35 34 37 36 34 43 52 53 50 46 44 42 41 39 36 34 27 22 23 25 24 29 31 34 37 36 32 41 39 38 34
8 11 14 14 15 25 26 36 34 27 25 29 30 28 29 29 30 32 31 32 33 32 33 34 46 53 52 51 48 46 44 41 40 35 33 34 32 32 36 37 35 37 40 37 37 39 50 41 35
8 13 14 14 11 22 26 35 30 21 17 23 21 25 28 30 30 29 28 29 28 29 31 34 37 49 53 50 46 45 41 38 37 37 37 38 39 39 39 37 37 39 40 40 42 39 50 40 45
10 13 11 14 18 21 21 33 20 22 11 14 18 26 29 31 30 28 27 26 27 26 27 31 31 37 48 48 44 43 41 40 39 34 33 39 44 43 42 43 40 39 43 40 36 44 47 39 45
10 7 11 15 14 10 20 10 24 12 13 17 24 29 33 29 31 28 24 23 23 24 24 28 28 30 42 47 44 44 41 40 38 37 37 36 39 39 35 33 32 34 33 32 36 38 41 39 40
8 11 17 19 19 17 9 10 8 18 25 18 19 20 20 25 24 22 20 22 22 20 20 23 24 30 37 44 42 40 39 38 33 32 35 33 34 32 29 28 24 27 31 39 37 33 30 36 43
11 12 12 3 3 5 7 5 7 19 27 16 19 19 19 15 18 22 23 23 20 19 16 19 26 31 36 38 40 41 36 35 36 35 31 30 30 30 26 20 24 31 32 32 36 38 40 39 35
4 10 5 3 2 5 6 8 9 18 14 12 14 20 18 20 20 22 24 23 21 17 17 21 28 30 32 36 35 36 37 36 32 33 30 28 30 24 24 26 23 28 28 31 33 31 34 28 27
3 7 2 3 2 5 10 5 7 19 14 9 15 18 15 15 26 19 14 16 15 14 14 24 25 28 30 30 33 33 35 34 37 35 32 32 28 27 26 29 29 18 34 29 28 30 28 29 31
3 3 6 6 9 5 3 5 9 18 10 12 13 17 9 9 27 6 3 15 16 15 18 23 24 26 28 26 28 28 30 32 32 31 27 22 26 23 22 26 30 27 27 26 24 29 34 37 37
7 7 4 4 4 4 3 4 17 17 13 14 18 21 21 10 33 16 5 16 18 18 18 20 23 24 22 20 24 23 12 20 15 11 14 19 20 15 21 21 19 20 25 30 29 27 28 32 35
6 4 4 5 4 2 4 4 12 17 26 30 33 38 39 36 31 34 32 12 16 16 15 15 16 13 18 9 26 19 12 8 12 21 16 14 17 17 16 9 10 9 16 24 18 23 26 24 27
9 6 6 3 2 3 2 4 11 20 24 27 31 31 33 35 38 39 28 29 31 28 13 22 16 27 27 21 16 21 14 14 9 10 15 13 6 10 11 12 11 8 8 13 11 19 25 26 25
Wind_Direction
213 207 197 189 195 199 215 228 236 209 223 214 219 219 219 219 201 200 155 134 197 226 238 250 248 226 215 241 297 291 276 279 289 306 308 289 191 196 174 166 167 118 65 25 10 6 1 34 97
209 200 195 190 206 204 217 232 245 241 233 217 216 216 219 210 213 208 176 149 135 161 224 231 237 238 241 269 271 275 281 287 293 299 288 254 216 182 185 177 188 146 58 15 6 1 5 31 107
206 205 199 192 218 224 239 226 221 231 224 211 207 216 215 216 217 217 218 222 194 203 253 231 241 256 266 266 265 278 279 276 289 289 290 314 201 171 192 201 207 218 87 1 358 358 353 40 123
205 201 209 217 211 220 225 209 191 213 209 195 197 203 223 226 228 228 223 213 205 202 228 239 243 247 253 249 250 253 262 280 277 274 257 228 194 196 213 214 238 246 257 322 344 348 347 350 137
208 217 217 225 224 235 235 242 237 224 216 221 226 227 229 224 230 233 226 226 223 206 215 228 230 233 235 236 234 242 253 263 272 274 259 252 224 212 219 226 240 246 255 279 314 332 332 313 237
208 214 224 231 237 242 240 254 247 221 218 235 232 228 229 233 234 234 228 221 227 220 207 212 221 224 224 229 228 226 251 262 266 272 267 252 240 219 230 241 233 240 246 265 290 310 311 281 266
211 220 231 241 245 243 247 243 255 256 250 248 247 243 233 231 231 235 230 222 223 222 214 212 216 223 232 238 239 237 248 262 269 264 256 249 244 238 231 235 235 235 245 253 269 288 298 280 246
214 224 232 240 244 251 254 256 254 255 256 256 252 251 242 236 231 231 230 222 227 224 225 224 218 219 222 227 237 237 242 247 265 267 264 248 235 234 239 240 240 239 239 245 252 268 281 277 264
223 230 240 245 247 248 255 262 262 259 256 254 255 252 249 244 239 234 233 229 226 227 226 226 229 231 223 223 224 236 234 237 241 254 265 258 246 236 231 240 242 242 240 241 248 252 267 272 268
228 235 244 249 253 254 260 261 262 265 265 263 264 265 254 244 240 239 235 235 231 227 231 229 228 226 224 227 228 237 239 240 234 239 253 263 253 239 235 238 240 242 242 244 245 247 253 263 264
238 241 243 250 255 258 259 262 265 269 263 272 275 265 259 253 242 239 238 237 237 235 231 234 238 235 235 230 224 228 230 236 236 238 242 252 259 250 239 236 238 238 243 247 249 248 249 251 257
244 248 251 254 263 266 267 265 266 265 272 280 268 266 261 258 254 244 241 238 239 236 234 233 236 242 240 235 228 226 232 237 236 237 235 244 252 255 249 240 239 244 244 247 249 247 247 248 248
245 252 259 265 268 269 269 272 274 270 286 269 273 273 269 264 257 254 247 242 240 241 238 237 237 236 241 244 242 230 228 239 246 249 245 248 240 251 248 248 244 244 241 245 248 244 245 245 245
251 258 265 269 273 277 274 273 270 287 275 279 273 269 268 267 263 255 252 249 244 243 241 239 237 237 237 238 242 236 228 229 239 250 251 250 245 240 247 249 251 248 245 243 247 243 242 243 244
258 266 274 278 277 278 280 276 278 276 276 276 274 273 272 271 269 268 261 251 248 245 242 240 238 234 235 235 238 241 242 237 237 237 238 245 252 243 246 252 258 252 253 250 247 241 237 241 243
272 276 277 277 280 283 283 276 275 280 281 277 278 276 270 272 275 270 266 260 250 246 244 242 240 236 233 233 235 238 242 239 230 231 242 249 257 256 261 260 264 261 258 252 251 248 233 234 240
266 267 275 284 285 284 280 280 284 283 287 283 280 277 274 273 269 269 265 261 257 248 243 241 239 238 234 232 232 234 235 232 232 244 249 251 252 258 266 265 266 262 265 268 259 260 239 233 234
254 274 285 298 295 282 279 282 288 296 286 281 279 280 272 263 263 267 264 263 261 254 245 239 237 236 234 233 230 231 235 240 246 252 248 249 254 260 267 269 264 264 265 267 267 267 257 225 230
279 298 306 312 301 288 287 286 297 305 289 283 280 277 271 264 267 274 266 262 258 254 248 244 236 235 234 233 232 234 239 243 248 250 254 257 261 266 276 278 268 258 266 263 263 263 256 250 225
296 296 309 313 307 300 312 299 307 307 290 282 278 265 265 264 267 269 263 255 251 257 260 245 237 232 231 232 233 235 239 241 243 247 254 264 270 274 276 276 275 263 259 269 265 256 259 245 226
292 302 308 306 323 313 317 308 313 309 317 308 283 274 269 264 258 262 260 256 256 260 266 245 238 232 229 228 230 232 234 238 245 248 255 265 270 273 272 271 271 263 259 263 253 256 256 266 251
310 304 312 314 319 306 303 293 301 309 315 313 299 283 276 271 259 254 258 258 265 273 263 244 231 225 222 222 224 230 236 241 244 252 258 263 271 272 265 263 266 256 246 241 248 263 259 253 256
304 300 305 297 287 291 291 241 285 312 327 339 341 338 330 267 262 256 257 259 268 279 261 238 220 209 214 216 220 224 231 241 246 246 259 266 270 260 254 264 254 250 252 250 249 251 255 247 245
298 310 303 303 253 244 258 236 293 340 332 330 342 338 328 309 268 260 260 260 267 272 258 232 204 202 205 211 215 222 227 233 240 249 255 263 261 246 256 264 259 250 249 252 246 248 258 258 250
315 332 340 1 193 235 271 262 283 324 349 343 325 315 312 322 298 275 263 257 256 248 247 232 195 193 197 208 218 223 227 231 239 248 259 267 251 250 253 260 264 258 245 233 252 248 250 244 226
275 295 260 270 283 291 282 249 310 330 316 342 324 308 303 340 328 297 266 243 248 243 230 205 200 203 206 213 216 223 233 241 248 251 256 270 261 258 263 253 253 270 242 246 236 242 238 230 231
295 260 284 268 269 268 280 324 339 347 322 335 19 13 316 345 5 33 221 225 233 224 194 196 199 202 209 216 221 227 237 242 245 256 254 254 246 262 250 246 253 252 253 240 245 229 228 233 238
268 288 291 257 312 306 327 19 342 3 29 32 42 45 53 73 43 42 180 201 205 210 194 192 193 197 193 211 219 214 237 200 182 189 210 221 219 210 228 225 245 248 250 245 244 245 247 253 249
357 323 270 281 281 304 321 1 6 76 84 71 66 60 57 57 63 68 74 106 203 162 170 156 166 167 185 175 168 169 183 152 177 180 164 201 220 227 211 205 252 275 245 250 257 253 256 263 252
338 324 341 252 294 273 261 346 108 95 85 76 66 59 55 48 45 56 72 69 86 92 148 168 175 163 136 127 149 168 138 146 157 187 185 182 182 184 192 209 209 233 252 255 253 254 261 256 258